Location: ??????
(36.0418°N, 43.6351°E)
Time: 03:17:32
(UTC+00:00)

CZ-3 R/B - Pass Details

Date: 07 March 2021
Orbit: 386 x 10219 km, 28.4° (Epoch: 22 April)

Event Time Altitude Azimuth Distance (km) Brightness Sun altitude
Exits shadow 01:41:57 19° 235° (SW) 6,976 5.3 -22.1°
Maximum altitude 01:57:22 46° 176° (S) 2,530 3.5 -19.0°
Drops below altitude 10° 02:04:11 10° 103° (ESE) 2,888 5.1 -17.7°
Sets 02:05:59 0° 96° (E) 3,444 6.0 -17.3°
